Home   Weather   St. Petersburg   Past weeks

Flag for USA Past Weather in St. Petersburg, Florida, USA — Yesterday and Last 2 Weeks

Now
81 °F

Passing clouds.


Feels Like: 85 °F
Forecast: 70 / 78 °F
Wind: 18 mph from Southwest

Location: Whitted Airport

Current Time: Dec 5, 2016 at 1:52:31 pm

Latest Report: Dec 5, 2016 at 12:53 pm


Visibility: 10 mi

Pressure: 29.93 "Hg

Humidity: 69%

Dew Point: 70 °F

Location of St. PetersburgLocation

Past Weather in St. Petersburg — Graph

°F

St. Petersburg Temperature Yesterday

Maximum temperature yesterday: 80 °F (at 1:53 pm)
Minimum temperature yesterday: 65 °F (at 3:53 am)
Average temperature yesterday: 72 °F

High & Low Weather Summary for the Past Weeks

 TemperatureHumidityPressure
High81 °F (Dec 5, 12:53 pm)100% (Nov 30, 5:53 am)30.25 "Hg (Nov 30, 5:53 am)
Low53 °F (Nov 21, 6:53 am)22% (Nov 20, 3:53 pm)29.90 "Hg (Nov 29, 2:53 am)
Average68 °F73%30.08 "Hg
* Reported Nov 20 12:53 pm — Dec 5 12:53 pm, St. Petersburg, Weather by CustomWeather, © 2016

Note: Actual official high and low records may vary slightly from our data, if they occured in-between our weather recording intervals... More about our weather records

Advertising

St. Petersburg Weather History for the Previous 24 Hours

Scroll right to see more
 ConditionsComfort  
Time TempWeatherWind HumidityBarometerVisibility
12:53 pm
Mon, Dec 5
81 °FPassing clouds.18 mph69%29.93 "Hg10 mi
11:53 am77 °FOvercast.5 mph79%29.96 "Hg10 mi
10:53 am74 °FOvercast.8 mph88%29.99 "Hg10 mi
9:53 am73 °FScattered clouds.8 mph90%29.99 "Hg10 mi
8:53 am71 °FLow clouds.3 mph96%29.98 "Hg7 mi
7:53 am69 °FPartly sunny.6 mph100%29.97 "Hg8 mi
6:53 am68 °FPassing clouds.9 mph100%29.96 "Hg8 mi
5:53 am68 °FClear.7 mph96%29.96 "Hg9 mi
4:53 am68 °FPassing clouds.5 mph96%29.97 "Hg10 mi
3:53 am68 °FClear.5 mph100%29.98 "Hg10 mi
2:53 am69 °FPassing clouds.3 mph96%29.99 "Hg10 mi
1:53 am69 °FClear.3 mph93%30.00 "Hg10 mi
12:53 am69 °FPassing clouds.3 mph93%30.00 "Hg10 mi
11:53 pm
Sun, Dec 4
69 °FClear.No wind93%30.01 "Hg10 mi
10:53 pm70 °FPassing clouds.No wind90%30.02 "Hg10 mi
9:53 pm71 °FClear.6 mph87%30.01 "Hg10 mi
8:53 pm70 °FClear.6 mph90%30.00 "Hg10 mi
7:53 pm73 °FClear.5 mph81%29.99 "Hg10 mi
6:53 pm74 °FClear.5 mph76%29.98 "Hg10 mi
5:53 pm76 °FClear.5 mph72%29.97 "Hg10 mi
4:53 pm78 °FSunny.7 mph66%29.96 "Hg10 mi
3:53 pm80 °FSunny.7 mph60%29.96 "Hg10 mi
2:53 pm79 °FSunny.5 mph62%29.97 "Hg10 mi
1:53 pm80 °FSunny.6 mph60%29.98 "Hg10 mi
Weather by CustomWeather, © 2016

See weather overviewHow to use our weather pages